Regional Weather Roundup
Issued by NWS Midland/Odessa, TX

Skip options and go directly to product.
Home | Oldest Version | Previous Version | Current Version | All | Text Only | Save Text | Print | Product List | Glossary On

Skip product version selection by date and time.   
121
ASUS44 KMAF 220110
RWRMAF
MIDLAND AREA WEATHER ROUNDUP
NATIONAL WEATHER SERVICE MIDLAND TX
800 PM CDT TUE OCT 21 2014

...IN SOUTHWEST TEXAS AND SOUTHEAST NEW MEXICO...

CITY           SKY/WX    TMP DP  RH WIND       PRES   REMARKS
ALPINE         CLOUDY    62  56  82 S6        30.15R
ANDREWS        CLOUDY    66  56  69 CALM      30.07R
ARTESIA        NOT AVBL
BIG SPRING     MOCLDY    72  54  53 E6        30.07R
CARLSBAD       MOCLDY    66  61  84 SE8       30.03R
DRYDEN           N/A     66  65  96 E5        30.02S
FORT STOCKTON  LGT RAIN  64  62  93 SE8       30.05S
GUAD PASS      PTCLDY    56  54  93 NE21      30.12R
HOBBS          CLOUDY    63  57  82 SE5       30.08S
MARFA          CLOUDY    57  55  94 E6        30.12R
MIDLAND AIRPK  CLOUDY    73  53  49 SE7       30.05S
MIDLAND INTL   CLOUDY    72  54  53 S8        30.05R
ODESSA         LGT RAIN  65  61  87 W5        30.06R
PECOS          CLOUDY    65  61  88 E10       30.02S
PRESIDIO       CLOUDY    67  61  81 NE9       30.00R
SEMINOLE       CLOUDY    62  60  92 CALM      30.08R
SNYDER         MOCLDY    68  51  54 SE7       30.06R
WINK           CLOUDY    65  62  90 E8        30.02F
$$
...OTHER STATIONS IN TEXAS...

CITY           SKY/WX    TMP DP  RH WIND       PRES   REMARKS
ABILENE        PTCLDY    72  51  47 SE7       30.04R
AMARILLO       CLEAR     65  47  52 SE10      30.06S
AUSTIN         MOCLDY    70  51  51 NE5       30.02R
BROWNSVILLE    LGT RAIN  75  73  94 CALM      29.91R
CORPUS CHRISTI MOCLDY    76  67  73 E9        29.96R
DALLAS FTW     PTCLDY    71  58  63 SE6       30.03S
DEL RIO        CLOUDY    71  67  87 W7        29.98R
EL PASO        PTCLDY    67  53  61 E10       30.01R
HOUSTON INT    PTCLDY    70  60  70 NE5       30.01R
LUBBOCK        MOCLDY    69  51  52 S9        30.07R
SAN ANGELO     CLOUDY    73  53  49 E5        30.03R
SAN ANTONIO    PTCLDY    74  49  41 E6        30.00R
WACO           PTCLDY    71  56  58 E6        30.03R
WICHITA FALLS  NOT AVBL
$$
...OTHER LOCATIONS IN NEW MEXICO...

CITY           SKY/WX    TMP DP  RH WIND       PRES   REMARKS
ALAMAGORDO     NOT AVBL
ALBUQUERQUE    PTCLDY    64  45  49 S10       30.06R
CANNON AFB     MOCLDY    59  56  90 SW3       30.09S
CLOVIS         CLOUDY    59  54  82 SW6       30.12R
HOLLOMAN AFB   MOCLDY    64  53  67 S8        30.01S
ROSWELL        PTCLDY    61  57  87 SE6       30.06R
RUIDOSO        PTCLDY    52  50  93 SE8       30.17S
SANTA FE       PTCLDY    57  44  62 S6        30.10R
TRUTH OR CONSE CLOUDY    65  51  60 CALM      30.03S
TUCUMCARI      CLOUDY    62  54  74 S12       30.06R
$$

USA.gov is the U.S. government's official web portal to all federal, state and local government web resources and services.